Weather History for Challis, ID

Change the Weather History Date:

Sunday, November 13, 2011

  Actual Average Record
Temperature  
Mean Temperature 35 °F 32 °F  
Max Temperature 45 °F 42 °F 60 °F (1989)
Min Temperature 24 °F 21 °F 2 °F (1955)
Degree Days  
Heating Degree Days 30 34  
Month to date heating degree days 466 394  
Since 1 July heating degree days 1188 1388  
Cooling Degree Days 0 0  
Month to date cooling degree days 0 0  
Year to date cooling degree days 196 248  
Moisture  
Dew Point 17 °F    
Average Humidity 52    
Maximum Humidity 75    
Minimum Humidity 29    
Precipitation  
Precipitation 0.00 in 0.02 in 0.35 in (1973)
Month to date precipitation 0.08 0.25  
Year to date precipitation 6.10 9.05  
Sea Level Pressure  
Sea Level Pressure 29.68 in    
Wind  
Wind Speed 6 mph (SW)    
Max Wind Speed 26 mph    
Max Gust Speed 37 mph    
Visibility 10 miles    
Events      
T = Trace of Precipitation, MM = Missing Value Source: NWS Daily Summary

Daily Weather History Graph

Daily Weather History Graph

Search for Another Location

Airport:

Trip Planner

Search our weather history database for the weather conditions in past years. The results will help you decide how hot, cold, wet, or windy it might be!

Date:

Astronomy

Nov. 13, 2011 Rise Set
Actual Time 7:30 AM MST 5:11 PM MST
Civil Twilight 6:59 AM MST 5:42 PM MST
Nautical Twilight 6:23 AM MST 6:17 PM MST
Astronomical Twilight 5:49 AM MST 6:52 PM MST
Moon 7:19 PM MST (11/13) 10:10 AM MST (11/13)
Length of Visible Light 10h 43m
Length of Day
9h 41m
Waning Gibbous, 92% of the Moon is Illuminated
Nov 13
Waning Gibbous
Nov 18
Last Quarter
Nov 24
New
Dec 2
First Quarter
Dec 10
Full

Hourly Weather History & Observations

Time (MST) Temp. Windchill Dew Point Humidity Pressure Visibility Wind Dir Wind Speed Gust Speed Precip Events Conditions
1:55 AM 30.9 °F - 19.0 °F 61% 29.65 in 10.0 mi Calm Calm - N/A   Overcast
2:55 AM 30.0 °F - 19.0 °F 64% 29.65 in 10.0 mi Calm Calm - N/A   Overcast
3:55 AM 27.0 °F - 19.0 °F 72% 29.65 in 10.0 mi Calm Calm - N/A   Overcast
4:55 AM 25.0 °F - 17.1 °F 72% 29.65 in 10.0 mi Calm Calm - N/A   Mostly Cloudy
5:55 AM 25.0 °F 19.3 °F 17.1 °F 72% 29.65 in 10.0 mi NNW 4.6 mph - N/A   Mostly Cloudy
6:55 AM 26.1 °F - 18.0 °F 71% 29.63 in 10.0 mi Calm Calm - N/A   Mostly Cloudy
7:55 AM 26.1 °F 19.4 °F 19.9 °F 78% 29.65 in 10.0 mi WNW 5.8 mph - N/A   Overcast
8:55 AM 33.1 °F 27.7 °F 19.9 °F 59% 29.62 in 10.0 mi SSW 5.8 mph - N/A   Mostly Cloudy
9:55 AM 39.9 °F 33.9 °F 19.0 °F 43% 29.60 in 10.0 mi South 9.2 mph - N/A   Overcast
10:55 AM 43.0 °F 37.2 °F 18.0 °F 37% 29.61 in 10.0 mi South 10.4 mph 20.7 mph N/A   Overcast
11:55 AM 43.0 °F 37.7 °F 15.1 °F 32% 29.63 in 10.0 mi NNW 9.2 mph - N/A   Mostly Cloudy
12:55 PM 45.0 °F 39.3 °F 16.0 °F 31% 29.62 in 10.0 mi WSW 11.5 mph - N/A   Partly Cloudy
1:55 PM 43.0 °F 35.7 °F 12.9 °F 30% 29.62 in 10.0 mi West 15.0 mph 36.8 mph N/A   Clear
3:55 PM 42.1 °F 35.2 °F 14.0 °F 32% 29.69 in 10.0 mi West 12.7 mph 18.4 mph N/A   Partly Cloudy
4:55 PM 37.9 °F 32.1 °F 12.9 °F 36% 29.73 in 10.0 mi West 8.1 mph 23.0 mph N/A   Partly Cloudy
5:55 PM 36.0 °F 32.1 °F 15.1 °F 43% 29.75 in 10.0 mi SSE 4.6 mph - N/A   Mostly Cloudy
6:55 PM 36.0 °F 30.3 °F 15.1 °F 43% 29.77 in 10.0 mi SSE 6.9 mph - N/A   Mostly Cloudy
7:55 PM 34.0 °F 28.0 °F 16.0 °F 48% 29.79 in 10.0 mi SSW 6.9 mph - N/A   Scattered Clouds
8:55 PM 35.1 °F 27.9 °F 17.1 °F 48% 29.76 in 10.0 mi South 9.2 mph - N/A   Mostly Cloudy
9:55 PM 34.0 °F 28.0 °F 16.0 °F 48% 29.73 in 10.0 mi SSE 6.9 mph - N/A   Clear
10:55 PM 33.1 °F - 15.1 °F 48% 29.72 in 10.0 mi Calm Calm - N/A   Clear
11:55 PM 32.0 °F 28.7 °F 16.0 °F 52% 29.71 in 10.0 mi NNW 3.5 mph - N/A   Clear